User: anonymous   Login
Location: Unspecified
(0.0000°N, 0.0000°E)
Time: 04:52:26
(UTC+01:00)
Language:

ARIANE 5 R/B - Orbit

View from above orbital plane
View from above orbital plane
View from above satellite
View from above satellite

Ground track
Ground track

The orbit data is extracted from the following two-line orbital elements,

1 27387U 02009B   16343.42276191  .00000014  00000-0  19561-4 0  9998
2 27387  98.4394 290.5903 0032260 349.4770  10.5737 14.35916067774161
Epoch (UTC): 08 December 2016 10:08:46
Eccentricity: 0.0032260
inclination: 98.4394°
perigee height: 749 km
apogee height: 795 km
right ascension of ascending node: 290.5903°
argument of perigee: 349.4770°
revolutions per day: 14.35916067
mean anomaly at epoch: 10.5737°
orbit number at epoch: 77416

The dashed part of the orbit path shows where the satellite is in the earth's shadow,  

DLR